Time,TemperatureF,DewpointF,PressureIn,WindDirection,WindDirectionDegrees,WindSpeedMPH,WindSpeedGustMPH,Humidity,HourlyPrecipIn,Conditions,Clouds,dailyrainin,SoftwareType,DateUTC
2013-10-09 00:00:00,52.5,42.3,29.76,WNW,285,1.0,3.0,68,0.00,,---,0.00,VWS V14.01,2013-10-09 07:00:00,
2013-10-09 00:01:00,52.2,42.0,29.76,WSW,249,0.0,1.0,68,0.00,,---,0.00,VWS V14.01,2013-10-09 07:01:00,
2013-10-09 00:06:00,51.9,42.1,29.76,West,260,0.0,2.0,69,0.00,,---,0.00,VWS V14.01,2013-10-09 07:06:00,
2013-10-09 00:11:00,52.0,41.8,29.76,West,263,2.0,4.0,68,0.00,,---,0.00,VWS V14.01,2013-10-09 07:11:00,
2013-10-09 00:16:00,52.4,41.8,29.76,West,264,0.0,4.0,67,0.00,,---,0.00,VWS V14.01,2013-10-09 07:16:00,
2013-10-09 00:21:00,52.4,42.2,29.76,SSW,200,0.0,4.0,68,0.00,,---,0.00,VWS V14.01,2013-10-09 07:21:00,
2013-10-09 00:26:00,52.6,42.7,29.76,West,263,1.0,4.0,69,0.00,,---,0.00,VWS V14.01,2013-10-09 07:26:00,
2013-10-09 00:30:00,52.7,42.8,29.76,WSW,256,0.0,4.0,69,0.00,,---,0.00,VWS V14.01,2013-10-09 07:30:00,
2013-10-09 00:31:00,52.6,42.3,29.75,SSW,200,0.0,3.0,68,0.00,,---,0.00,VWS V14.01,2013-10-09 07:31:00,
2013-10-09 00:36:00,52.3,42.5,29.75,WNW,287,4.0,4.0,69,0.00,,---,0.00,VWS V14.01,2013-10-09 07:36:00,
2013-10-09 00:41:00,52.2,42.3,29.75,West,260,2.0,7.0,69,0.00,,---,0.00,VWS V14.01,2013-10-09 07:41:00,
2013-10-09 00:46:00,52.2,42.0,29.75,South,174,0.0,7.0,68,0.00,,---,0.00,VWS V14.01,2013-10-09 07:46:00,
2013-10-09 00:51:00,52.1,41.9,29.75,WNW,285,2.0,7.0,68,0.00,,---,0.00,VWS V14.01,2013-10-09 07:51:00,
2013-10-09 00:56:00,52.2,41.6,29.75,SW,233,0.0,7.0,67,0.00,,---,0.00,VWS V14.01,2013-10-09 07:56:00,
2013-10-09 01:00:00,52.1,41.9,29.75,SE,138,0.0,7.0,68,0.00,,---,0.00,VWS V14.01,2013-10-09 08:00:00,
2013-10-09 01:01:00,52.1,42.2,29.75,WNW,283,1.0,11.0,69,0.00,,---,0.00,VWS V14.01,2013-10-09 08:01:00,
2013-10-09 01:06:00,52.0,42.2,29.75,West,273,0.0,11.0,69,0.00,,---,0.00,VWS V14.01,2013-10-09 08:06:00,
2013-10-09 01:11:00,51.9,42.4,29.74,SW,216,3.0,11.0,70,0.00,,---,0.00,VWS V14.01,2013-10-09 08:11:00,
2013-10-09 01:16:00,51.8,42.3,29.75,West,281,1.0,11.0,70,0.00,,---,0.00,VWS V14.01,2013-10-09 08:16:00,
2013-10-09 01:21:00,51.8,42.3,29.75,West,264,1.0,11.0,70,0.00,,---,0.00,VWS V14.01,2013-10-09 08:21:00,
2013-10-09 01:26:00,51.8,42.0,29.75,WNW,293,0.0,11.0,69,0.00,,---,0.00,VWS V14.01,2013-10-09 08:26:00,
2013-10-09 01:30:00,51.9,42.1,29.75,WNW,293,2.0,11.0,69,0.00,,---,0.00,VWS V14.01,2013-10-09 08:30:00,
2013-10-09 01:31:00,51.8,42.0,29.75,West,277,0.0,4.0,69,0.00,,---,0.00,VWS V14.01,2013-10-09 08:31:00,
2013-10-09 01:36:00,51.6,41.8,29.75,West,274,1.0,5.0,69,0.00,,---,0.00,VWS V14.01,2013-10-09 08:36:00,
2013-10-09 01:41:00,51.7,41.9,29.75,WSW,248,5.0,7.0,69,0.00,,---,0.00,VWS V14.01,2013-10-09 08:41:00,
2013-10-09 01:46:00,51.7,41.9,29.75,WNW,283,5.0,7.0,69,0.00,,---,0.00,VWS V14.01,2013-10-09 08:46:00,
2013-10-09 01:51:00,51.7,41.9,29.74,West,277,3.0,7.0,69,0.00,,---,0.00,VWS V14.01,2013-10-09 08:51:00,
2013-10-09 01:56:00,51.7,41.9,29.73,North,356,1.0,7.0,69,0.00,,---,0.00,VWS V14.01,2013-10-09 08:56:00,
2013-10-09 02:00:00,51.8,42.0,29.74,SSW,201,8.0,8.0,69,0.00,,---,0.00,VWS V14.01,2013-10-09 09:00:00,
2013-10-09 02:01:00,51.8,42.3,29.74,SSW,195,0.0,11.0,70,0.00,,---,0.00,VWS V14.01,2013-10-09 09:01:00,
2013-10-09 02:06:00,51.8,43.1,29.74,WNW,285,2.0,11.0,72,0.00,,---,0.00,VWS V14.01,2013-10-09 09:06:00,
2013-10-09 02:11:00,51.7,43.0,29.73,WSW,257,2.0,11.0,72,0.00,,---,0.00,VWS V14.01,2013-10-09 09:11:00,
2013-10-09 02:16:00,51.6,42.9,29.73,WNW,298,3.0,11.0,72,0.00,,---,0.00,VWS V14.01,2013-10-09 09:16:00,
2013-10-09 02:21:00,51.3,42.6,29.73,West,269,1.0,11.0,72,0.00,,---,0.00,VWS V14.01,2013-10-09 09:21:00,
2013-10-09 02:26:00,51.0,42.3,29.74,WNW,288,3.0,11.0,72,0.00,,---,0.00,VWS V14.01,2013-10-09 09:26:00,
2013-10-09 02:30:00,51.0,42.7,29.73,WSW,257,1.0,11.0,73,0.00,,---,0.00,VWS V14.01,2013-10-09 09:30:00,
2013-10-09 02:31:00,51.0,42.3,29.73,West,281,1.0,4.0,72,0.00,,---,0.00,VWS V14.01,2013-10-09 09:31:00,
2013-10-09 02:36:00,50.7,42.0,29.73,WSW,257,0.0,4.0,72,0.00,,---,0.00,VWS V14.01,2013-10-09 09:36:00,
2013-10-09 02:41:00,50.3,42.0,29.73,West,265,2.0,4.0,73,0.00,,---,0.00,VWS V14.01,2013-10-09 09:41:00,
2013-10-09 02:46:00,50.7,42.7,29.73,WSW,252,0.0,9.0,74,0.00,,---,0.00,VWS V14.01,2013-10-09 09:46:00,
2013-10-09 02:51:00,50.8,42.1,29.72,South,184,3.0,9.0,72,0.00,,---,0.00,VWS V14.01,2013-10-09 09:51:00,
2013-10-09 02:56:00,50.8,42.1,29.72,West,277,1.0,9.0,72,0.00,,---,0.00,VWS V14.01,2013-10-09 09:56:00,
2013-10-09 03:00:00,50.6,41.6,29.72,West,277,0.0,1.0,71,0.00,,---,0.00,VWS V14.01,2013-10-09 10:00:00,
2013-10-09 03:05:00,50.4,42.1,29.72,West,259,0.0,5.0,73,0.00,,---,0.00,VWS V14.01,2013-10-09 10:05:00,
2013-10-09 03:10:00,50.4,42.1,29.72,WNW,300,1.0,5.0,73,0.00,,---,0.00,VWS V14.01,2013-10-09 10:10:00,
2013-10-09 03:15:00,50.3,42.0,29.72,West,273,2.0,5.0,73,0.00,,---,0.00,VWS V14.01,2013-10-09 10:15:00,
2013-10-09 03:20:00,50.4,42.1,29.72,WSW,242,2.0,5.0,73,0.00,,---,0.00,VWS V14.01,2013-10-09 10:20:00,
2013-10-09 03:25:00,50.6,42.3,29.72,WSW,249,1.0,5.0,73,0.00,,---,0.00,VWS V14.01,2013-10-09 10:25:00,
2013-10-09 03:30:00,51.1,42.0,29.71,NW,325,3.0,8.0,71,0.00,,---,0.00,VWS V14.01,2013-10-09 10:30:00,
2013-10-09 03:35:00,51.3,41.9,29.71,SW,228,1.0,8.0,70,0.00,,---,0.00,VWS V14.01,2013-10-09 10:35:00,
2013-10-09 03:40:00,51.1,41.7,29.71,WNW,288,3.0,8.0,70,0.00,,---,0.00,VWS V14.01,2013-10-09 10:40:00,
2013-10-09 03:45:00,51.1,41.7,29.71,NW,308,2.0,8.0,70,0.00,,---,0.00,VWS V14.01,2013-10-09 10:45:00,
2013-10-09 03:50:00,51.2,41.8,29.71,SSW,207,0.0,8.0,70,0.00,,---,0.00,VWS V14.01,2013-10-09 10:50:00,
2013-10-09 03:55:00,51.1,41.3,29.70,SSW,203,1.0,8.0,69,0.00,,---,0.00,VWS V14.01,2013-10-09 10:55:00,
2013-10-09 04:00:00,50.9,41.5,29.70,SSW,197,0.0,0.0,70,0.00,,---,0.00,VWS V14.01,2013-10-09 11:00:00,
2013-10-09 04:05:00,50.9,41.1,29.70,SW,226,0.0,5.0,69,0.00,,---,0.00,VWS V14.01,2013-10-09 11:05:00,
2013-10-09 04:10:00,50.9,41.1,29.70,NNW,330,0.0,5.0,69,0.00,,---,0.00,VWS V14.01,2013-10-09 11:10:00,
2013-10-09 04:15:00,50.8,41.0,29.70,NW,307,1.0,5.0,69,0.00,,---,0.00,VWS V14.01,2013-10-09 11:15:00,
2013-10-09 04:20:00,51.3,41.1,29.70,SW,221,2.0,7.0,68,0.00,,---,0.00,VWS V14.01,2013-10-09 11:20:00,
2013-10-09 04:25:00,51.3,40.7,29.70,WSW,255,0.0,7.0,67,0.00,,---,0.00,VWS V14.01,2013-10-09 11:25:00,
2013-10-09 04:30:00,51.0,40.4,29.69,North,356,0.0,0.0,67,0.00,,---,0.00,VWS V14.01,2013-10-09 11:30:00,
2013-10-09 04:35:00,50.5,40.7,29.69,NNW,347,1.0,5.0,69,0.00,,---,0.00,VWS V14.01,2013-10-09 11:35:00,
2013-10-09 04:40:00,50.0,40.2,29.69,NW,318,2.0,5.0,69,0.00,,---,0.00,VWS V14.01,2013-10-09 11:40:00,
2013-10-09 04:45:00,49.3,40.3,29.69,North,358,4.0,5.0,71,0.00,,---,0.00,VWS V14.01,2013-10-09 11:45:00,
2013-10-09 04:50:00,49.5,40.1,29.69,NE,40,1.0,5.0,70,0.00,,---,0.00,VWS V14.01,2013-10-09 11:50:00,
2013-10-09 04:55:00,49.3,40.3,29.69,NE,43,2.0,5.0,71,0.00,,---,0.00,VWS V14.01,2013-10-09 11:55:00,
2013-10-09 05:00:00,49.7,40.3,29.69,NE,44,0.0,6.0,70,0.00,,---,0.00,VWS V14.01,2013-10-09 12:00:00,
2013-10-09 05:03:00,50.1,40.3,29.68,ENE,78,2.0,6.0,69,0.00,,---,0.00,VWS V14.01,2013-10-09 12:03:00,
2013-10-09 05:08:00,50.6,39.7,29.69,ENE,73,3.0,6.0,66,0.00,,---,0.00,VWS V14.01,2013-10-09 12:08:00,
2013-10-09 05:13:00,51.0,40.1,29.69,NNW,338,0.0,6.0,66,0.00,,---,0.00,VWS V14.01,2013-10-09 12:13:00,
2013-10-09 05:18:00,50.6,39.7,29.69,NNW,340,0.0,6.0,66,0.00,,---,0.00,VWS V14.01,2013-10-09 12:18:00,
2013-10-09 05:23:00,50.1,39.6,29.68,NW,308,2.0,6.0,67,0.00,,---,0.00,VWS V14.01,2013-10-09 12:23:00,
2013-10-09 05:28:00,50.4,39.5,29.68,SW,224,1.0,1.0,66,0.00,,---,0.00,VWS V14.01,2013-10-09 12:28:00,
2013-10-09 05:30:00,50.4,39.5,29.68,SW,232,1.0,6.0,66,0.00,,---,0.00,VWS V14.01,2013-10-09 12:30:00,
2013-10-09 05:33:00,50.6,40.1,29.68,NE,50,1.0,4.0,67,0.00,,---,0.00,VWS V14.01,2013-10-09 12:33:00,
2013-10-09 05:38:00,50.7,39.8,29.67,NE,44,2.0,4.0,66,0.00,,---,0.00,VWS V14.01,2013-10-09 12:38:00,
2013-10-09 05:43:00,51.1,39.8,29.68,SW,221,1.0,4.0,65,0.00,,---,0.00,VWS V14.01,2013-10-09 12:43:00,
2013-10-09 05:48:00,51.0,39.7,29.67,SSE,157,1.0,4.0,65,0.00,,---,0.00,VWS V14.01,2013-10-09 12:48:00,
2013-10-09 05:53:00,51.1,39.8,29.67,WNW,302,3.0,7.0,65,0.00,,---,0.00,VWS V14.01,2013-10-09 12:53:00,
2013-10-09 05:58:00,51.0,40.1,29.68,WSW,239,0.0,5.0,66,0.00,,---,0.00,VWS V14.01,2013-10-09 12:58:00,
2013-10-09 06:00:00,51.0,40.1,29.68,SW,224,5.0,7.0,66,0.00,,---,0.00,VWS V14.01,2013-10-09 13:00:00,
2013-10-09 06:03:00,50.8,39.9,29.68,NW,315,0.0,5.0,66,0.00,,---,0.00,VWS V14.01,2013-10-09 13:03:00,
2013-10-09 06:08:00,50.8,39.9,29.67,South,181,0.0,5.0,66,0.00,,---,0.00,VWS V14.01,2013-10-09 13:08:00,
2013-10-09 06:13:00,50.7,40.2,29.68,NNW,330,1.0,9.0,67,0.00,,---,0.00,VWS V14.01,2013-10-09 13:13:00,
2013-10-09 06:18:00,50.6,40.1,29.67,SSW,208,11.0,11.0,67,0.00,,---,0.00,VWS V14.01,2013-10-09 13:18:00,
2013-10-09 06:23:00,50.6,40.1,29.67,SSW,212,3.0,14.0,67,0.00,,---,0.00,VWS V14.01,2013-10-09 13:23:00,
2013-10-09 06:28:00,50.7,40.5,29.67,SW,224,1.0,4.0,68,0.00,,---,0.00,VWS V14.01,2013-10-09 13:28:00,
2013-10-09 06:30:00,50.8,40.6,29.67,SW,219,4.0,14.0,68,0.00,,---,0.00,VWS V14.01,2013-10-09 13:30:00,
2013-10-09 06:33:00,50.4,40.6,29.67,WSW,258,1.0,11.0,69,0.00,,---,0.00,VWS V14.01,2013-10-09 13:33:00,
2013-10-09 06:38:00,50.4,40.6,29.67,SSW,212,2.0,17.0,69,0.00,,---,0.00,VWS V14.01,2013-10-09 13:38:00,
2013-10-09 06:43:00,50.5,40.3,29.67,SW,226,8.0,17.0,68,0.00,,---,0.00,VWS V14.01,2013-10-09 13:43:00,
2013-10-09 06:48:00,50.5,40.3,29.67,SSW,195,1.0,17.0,68,0.00,,---,0.00,VWS V14.01,2013-10-09 13:48:00,
2013-10-09 06:53:00,50.3,40.2,29.67,WSW,242,2.0,17.0,68,0.00,,---,0.00,VWS V14.01,2013-10-09 13:53:00,
2013-10-09 06:58:00,50.2,40.4,29.67,WNW,283,2.0,2.0,69,0.00,,---,0.00,VWS V14.01,2013-10-09 13:58:00,
2013-10-09 07:00:00,50.2,40.4,29.67,SW,224,2.0,17.0,69,0.00,,---,0.00,VWS V14.01,2013-10-09 14:00:00,
2013-10-09 07:03:00,50.0,40.2,29.66,SSW,203,5.0,10.0,69,0.00,,---,0.00,VWS V14.01,2013-10-09 14:03:00,
2013-10-09 07:08:00,49.9,40.2,29.67,SSW,207,7.0,12.0,69,0.00,,---,0.00,VWS V14.01,2013-10-09 14:08:00,
2013-10-09 07:13:00,49.9,40.2,29.67,WNW,302,3.0,15.0,69,0.00,,---,0.00,VWS V14.01,2013-10-09 14:13:00,
2013-10-09 07:18:00,50.0,40.6,29.66,SW,225,23.0,23.0,70,0.00,,---,0.00,VWS V14.01,2013-10-09 14:18:00,
2013-10-09 07:23:00,50.0,40.2,29.67,South,190,3.0,23.0,69,0.00,,---,0.00,VWS V14.01,2013-10-09 14:23:00,
2013-10-09 07:28:00,50.2,40.1,29.67,SSW,201,4.0,5.0,68,0.00,,---,0.00,VWS V14.01,2013-10-09 14:28:00,
2013-10-09 07:30:00,50.2,40.4,29.67,South,191,3.0,23.0,69,0.00,,---,0.00,VWS V14.01,2013-10-09 14:30:00,
2013-10-09 07:33:00,50.2,40.4,29.67,SSW,201,16.0,16.0,69,0.00,,---,0.00,VWS V14.01,2013-10-09 14:33:00,
2013-10-09 07:38:00,50.3,40.9,29.67,SSW,207,7.0,20.0,70,0.00,,---,0.00,VWS V14.01,2013-10-09 14:38:00,
2013-10-09 07:43:00,50.8,40.6,29.67,SE,125,2.0,20.0,68,0.00,,---,0.00,VWS V14.01,2013-10-09 14:43:00,
2013-10-09 07:48:00,51.4,40.8,29.67,SW,218,14.0,23.0,67,0.00,,---,0.00,VWS V14.01,2013-10-09 14:48:00,
2013-10-09 07:53:00,51.7,41.1,29.67,SW,232,6.0,23.0,67,0.00,,---,0.00,VWS V14.01,2013-10-09 14:53:00,
2013-10-09 07:58:00,52.3,40.9,29.67,SSE,152,9.0,10.0,65,0.00,,---,0.00,VWS V14.01,2013-10-09 14:58:00,
2013-10-09 08:00:00,52.3,40.9,29.67,South,183,6.0,23.0,65,0.00,,---,0.00,VWS V14.01,2013-10-09 15:00:00,
2013-10-09 08:03:00,52.6,41.2,29.67,SW,223,4.0,17.0,65,0.00,,---,0.00,VWS V14.01,2013-10-09 15:03:00,
2013-10-09 08:08:00,52.9,40.7,29.67,WSW,243,2.0,22.0,63,0.00,,---,0.00,VWS V14.01,2013-10-09 15:08:00,
2013-10-09 08:13:00,53.2,41.0,29.67,WSW,248,10.0,22.0,63,0.00,,---,0.00,VWS V14.01,2013-10-09 15:13:00,
2013-10-09 08:18:00,53.2,41.0,29.68,South,176,4.0,22.0,63,0.00,,---,0.00,VWS V14.01,2013-10-09 15:18:00,
2013-10-09 08:23:00,53.4,41.1,29.68,SSW,207,16.0,22.0,63,0.00,,---,0.00,VWS V14.01,2013-10-09 15:23:00,
2013-10-09 08:28:00,53.8,41.5,29.68,WSW,242,16.0,16.0,63,0.00,,---,0.00,VWS V14.01,2013-10-09 15:28:00,
2013-10-09 08:30:00,53.7,41.4,29.68,NE,34,4.0,22.0,63,0.00,,---,0.00,VWS V14.01,2013-10-09 15:30:00,
2013-10-09 08:33:00,53.9,41.6,29.68,SW,214,9.0,21.0,63,0.00,,---,0.00,VWS V14.01,2013-10-09 15:33:00,
2013-10-09 08:38:00,53.9,42.0,29.68,SSW,204,14.0,21.0,64,0.00,,---,0.00,VWS V14.01,2013-10-09 15:38:00,
2013-10-09 08:42:00,54.2,41.9,29.68,SSE,159,6.0,21.0,63,0.00,,---,0.00,VWS V14.01,2013-10-09 15:42:00,
2013-10-09 08:47:00,54.5,42.6,29.68,SW,220,2.0,21.0,64,0.00,,---,0.00,VWS V14.01,2013-10-09 15:47:00,
2013-10-09 08:52:00,54.3,42.0,29.68,West,264,6.0,21.0,63,0.00,,---,0.00,VWS V14.01,2013-10-09 15:52:00,
2013-10-09 08:57:00,53.6,41.7,29.69,WSW,247,10.0,11.0,64,0.00,,---,0.00,VWS V14.01,2013-10-09 15:57:00,
2013-10-09 09:00:00,53.6,41.7,29.69,SSW,203,11.0,21.0,64,0.00,,---,0.00,VWS V14.01,2013-10-09 16:00:00,
2013-10-09 09:02:00,53.8,42.3,29.69,South,186,2.0,16.0,65,0.00,,---,0.00,VWS V14.01,2013-10-09 16:02:00,
2013-10-09 09:07:00,53.9,42.4,29.68,SW,214,18.0,19.0,65,0.00,,---,0.00,VWS V14.01,2013-10-09 16:07:00,
2013-10-09 09:12:00,53.1,42.1,29.68,South,190,9.0,23.0,66,0.00,,---,0.00,VWS V14.01,2013-10-09 16:12:00,
2013-10-09 09:17:00,53.2,42.5,29.69,West,269,4.0,23.0,67,0.00,,---,0.00,VWS V14.01,2013-10-09 16:17:00,
2013-10-09 09:22:00,53.9,42.8,29.69,SSW,211,8.0,23.0,66,0.00,,---,0.00,VWS V14.01,2013-10-09 16:22:00,
2013-10-09 09:27:00,54.5,43.0,29.68,West,259,6.0,23.0,65,0.00,,---,0.00,VWS V14.01,2013-10-09 16:27:00,
2013-10-09 09:30:00,54.5,43.0,29.68,West,262,4.0,23.0,65,0.00,,---,0.00,VWS V14.01,2013-10-09 16:30:00,
2013-10-09 09:32:00,55.3,42.9,29.68,SSW,199,8.0,11.0,63,0.00,,---,0.00,VWS V14.01,2013-10-09 16:32:00,
2013-10-09 09:37:00,55.3,42.1,29.69,SSW,204,12.0,20.0,61,0.00,,---,0.00,VWS V14.01,2013-10-09 16:37:00,
2013-10-09 09:42:00,54.7,42.8,29.69,South,174,4.0,20.0,64,0.00,,---,0.00,VWS V14.01,2013-10-09 16:42:00,
2013-10-09 09:47:00,55.1,42.3,29.69,West,277,4.0,20.0,62,0.00,,---,0.00,VWS V14.01,2013-10-09 16:47:00,
2013-10-09 09:52:00,55.7,42.5,29.69,WSW,257,2.0,20.0,61,0.00,,---,0.00,VWS V14.01,2013-10-09 16:52:00,
2013-10-09 09:57:00,56.0,41.9,29.68,SSE,159,4.0,20.0,59,0.00,,---,0.00,VWS V14.01,2013-10-09 16:57:00,
2013-10-09 10:00:00,56.0,41.9,29.68,SSW,204,3.0,20.0,59,0.00,,---,0.00,VWS V14.01,2013-10-09 17:00:00,
2013-10-09 10:02:00,56.3,42.2,29.69,West,277,1.0,11.0,59,0.00,,---,0.00,VWS V14.01,2013-10-09 17:02:00,
2013-10-09 10:07:00,56.9,41.8,29.69,WNW,285,11.0,13.0,57,0.00,,---,0.00,VWS V14.01,2013-10-09 17:07:00,
2013-10-09 10:12:00,57.0,42.4,29.69,WNW,283,7.0,13.0,58,0.00,,---,0.00,VWS V14.01,2013-10-09 17:12:00,
2013-10-09 10:17:00,57.3,42.2,29.69,WSW,242,6.0,14.0,57,0.00,,---,0.00,VWS V14.01,2013-10-09 17:17:00,
2013-10-09 10:22:00,57.6,42.5,29.69,ESE,122,4.0,18.0,57,0.00,,---,0.00,VWS V14.01,2013-10-09 17:22:00,
2013-10-09 10:27:00,57.9,41.4,29.69,West,264,7.0,18.0,54,0.00,,---,0.00,VWS V14.01,2013-10-09 17:27:00,
2013-10-09 10:30:00,57.8,41.3,29.69,WSW,252,2.0,18.0,54,0.00,,---,0.00,VWS V14.01,2013-10-09 17:30:00,
2013-10-09 10:32:00,57.9,41.8,29.69,SW,214,14.0,18.0,55,0.00,,---,0.00,VWS V14.01,2013-10-09 17:32:00,
2013-10-09 10:37:00,57.9,41.8,29.69,NW,312,2.0,20.0,55,0.00,,---,0.00,VWS V14.01,2013-10-09 17:37:00,
2013-10-09 10:42:00,57.5,41.0,29.69,SSW,203,13.0,20.0,54,0.00,,---,0.00,VWS V14.01,2013-10-09 17:42:00,
2013-10-09 10:47:00,57.5,41.5,29.69,SSW,208,18.0,20.0,55,0.00,,---,0.00,VWS V14.01,2013-10-09 17:47:00,
2013-10-09 10:52:00,57.5,41.5,29.69,SSW,213,14.0,20.0,55,0.00,,---,0.00,VWS V14.01,2013-10-09 17:52:00,
2013-10-09 10:57:00,57.8,40.8,29.69,SW,231,10.0,24.0,53,0.00,,---,0.00,VWS V14.01,2013-10-09 17:57:00,
2013-10-09 11:00:00,57.8,40.8,29.69,WSW,252,9.0,24.0,53,0.00,,---,0.00,VWS V14.01,2013-10-09 18:00:00,
2013-10-09 11:02:00,57.2,40.2,29.68,SW,218,6.0,22.0,53,0.00,,---,0.00,VWS V14.01,2013-10-09 18:02:00,
2013-10-09 11:07:00,57.0,40.1,29.68,SSW,203,4.0,22.0,53,0.00,,---,0.00,VWS V14.01,2013-10-09 18:07:00,
2013-10-09 11:12:00,56.3,39.9,29.68,SSW,210,19.0,24.0,54,0.00,,---,0.00,VWS V14.01,2013-10-09 18:12:00,
2013-10-09 11:17:00,55.7,39.3,29.68,SW,221,16.0,24.0,54,0.00,,---,0.00,VWS V14.01,2013-10-09 18:17:00,
2013-10-09 11:22:00,55.2,39.3,29.68,SW,220,14.0,25.0,55,0.00,,---,0.00,VWS V14.01,2013-10-09 18:22:00,
2013-10-09 11:27:00,55.0,39.6,29.68,SSW,201,15.0,25.0,56,0.00,,---,0.00,VWS V14.01,2013-10-09 18:27:00,
2013-10-09 11:30:00,55.0,39.6,29.68,SSW,193,20.0,25.0,56,0.00,,---,0.00,VWS V14.01,2013-10-09 18:30:00,
2013-10-09 11:32:00,54.9,40.0,29.68,SSW,195,20.0,20.0,57,0.00,,---,0.00,VWS V14.01,2013-10-09 18:32:00,
2013-10-09 11:37:00,54.6,39.7,29.68,SSW,200,13.0,23.0,57,0.00,,---,0.00,VWS V14.01,2013-10-09 18:37:00,
2013-10-09 11:42:00,53.9,39.9,29.68,SW,229,15.0,27.0,59,0.00,,---,0.00,VWS V14.01,2013-10-09 18:42:00,
2013-10-09 11:47:00,53.1,40.0,29.68,SSW,201,11.0,27.0,61,0.00,,---,0.00,VWS V14.01,2013-10-09 18:47:00,
2013-10-09 11:52:00,52.8,40.2,29.68,SSW,207,15.0,27.0,62,0.00,,---,0.00,VWS V14.01,2013-10-09 18:52:00,
2013-10-09 11:57:00,52.8,40.6,29.68,SSW,193,17.0,27.0,63,0.00,,---,0.00,VWS V14.01,2013-10-09 18:57:00,
2013-10-09 12:00:00,52.8,40.6,29.68,SSW,200,17.0,27.0,63,0.00,,---,0.00,VWS V14.01,2013-10-09 19:00:00,
2013-10-09 12:02:00,52.9,39.8,29.68,SW,217,13.0,25.0,61,0.00,,---,0.00,VWS V14.01,2013-10-09 19:02:00,
2013-10-09 12:07:00,53.1,40.4,29.68,SW,228,12.0,25.0,62,0.00,,---,0.00,VWS V14.01,2013-10-09 19:07:00,
2013-10-09 12:12:00,54.4,40.8,29.67,SW,224,15.0,25.0,60,0.00,,---,0.00,VWS V14.01,2013-10-09 19:12:00,
2013-10-09 12:17:00,54.9,40.4,29.67,SSW,197,20.0,25.0,58,0.00,,---,0.00,VWS V14.01,2013-10-09 19:17:00,
2013-10-09 12:22:00,54.4,40.0,29.67,SW,235,15.0,25.0,58,0.00,,---,0.00,VWS V14.01,2013-10-09 19:22:00,
2013-10-09 12:27:00,54.2,40.6,29.67,SW,222,8.0,25.0,60,0.00,,---,0.00,VWS V14.01,2013-10-09 19:27:00,
2013-10-09 12:30:00,54.2,40.6,29.67,SSW,201,3.0,25.0,60,0.00,,---,0.00,VWS V14.01,2013-10-09 19:30:00,
2013-10-09 12:32:00,54.3,40.7,29.67,East,101,3.0,18.0,60,0.00,,---,0.00,VWS V14.01,2013-10-09 19:32:00,
2013-10-09 12:37:00,54.2,40.2,29.67,SW,224,13.0,19.0,59,0.00,,---,0.00,VWS V14.01,2013-10-09 19:37:00,
2013-10-09 12:42:00,54.7,39.8,29.67,SSW,207,12.0,19.0,57,0.00,,---,0.00,VWS V14.01,2013-10-09 19:42:00,
2013-10-09 12:47:00,55.0,39.2,29.66,South,191,7.0,20.0,55,0.00,,---,0.00,VWS V14.01,2013-10-09 19:47:00,
2013-10-09 12:52:00,55.3,39.4,29.66,SSW,204,5.0,20.0,55,0.00,,---,0.00,VWS V14.01,2013-10-09 19:52:00,
2013-10-09 12:57:00,55.8,39.4,29.66,WNW,293,1.0,20.0,54,0.00,,---,0.00,VWS V14.01,2013-10-09 19:57:00,
2013-10-09 13:00:00,55.8,39.4,29.66,NW,325,2.0,20.0,54,0.00,,---,0.00,VWS V14.01,2013-10-09 20:00:00,
2013-10-09 13:02:00,55.8,38.5,29.65,SSW,198,1.0,19.0,52,0.00,,---,0.00,VWS V14.01,2013-10-09 20:02:00,
2013-10-09 13:07:00,56.4,39.5,29.65,WSW,242,5.0,19.0,53,0.00,,---,0.00,VWS V14.01,2013-10-09 20:07:00,
2013-10-09 13:12:00,57.4,39.4,29.65,South,180,11.0,19.0,51,0.00,,---,0.00,VWS V14.01,2013-10-09 20:12:00,
2013-10-09 13:17:00,57.4,38.9,29.65,SSW,200,2.0,20.0,50,0.00,,---,0.00,VWS V14.01,2013-10-09 20:17:00,
2013-10-09 13:22:00,58.1,40.1,29.65,South,179,17.0,20.0,51,0.00,,---,0.00,VWS V14.01,2013-10-09 20:22:00,
2013-10-09 13:27:00,59.6,39.4,29.65,SSW,194,8.0,20.0,47,0.00,,---,0.00,VWS V14.01,2013-10-09 20:27:00,
2013-10-09 13:30:00,59.7,38.9,29.65,SSW,195,5.0,20.0,46,0.00,,---,0.00,VWS V14.01,2013-10-09 20:30:00,
2013-10-09 13:32:00,59.9,38.5,29.65,SSW,213,14.0,16.0,45,0.00,,---,0.00,VWS V14.01,2013-10-09 20:32:00,
2013-10-09 13:37:00,57.8,38.8,29.65,SSE,163,11.0,20.0,49,0.00,,---,0.00,VWS V14.01,2013-10-09 20:37:00,
2013-10-09 13:42:00,56.8,38.9,29.64,South,172,14.0,20.0,51,0.00,,---,0.00,VWS V14.01,2013-10-09 20:42:00,
2013-10-09 13:47:00,56.3,38.4,29.63,SSE,162,17.0,20.0,51,0.00,,---,0.00,VWS V14.01,2013-10-09 20:47:00,
2013-10-09 13:52:00,55.6,38.8,29.63,SW,235,14.0,24.0,53,0.00,,---,0.00,VWS V14.01,2013-10-09 20:52:00,
2013-10-09 13:57:00,56.3,39.4,29.63,SW,227,6.0,24.0,53,0.00,,---,0.00,VWS V14.01,2013-10-09 20:57:00,
2013-10-09 14:00:00,56.4,39.5,29.63,SW,218,12.0,24.0,53,0.00,,---,0.00,VWS V14.01,2013-10-09 21:00:00,
2013-10-09 14:02:00,56.4,38.0,29.63,SW,214,10.0,22.0,50,0.00,,---,0.00,VWS V14.01,2013-10-09 21:02:00,
2013-10-09 14:07:00,56.2,38.8,29.63,SSW,203,16.0,22.0,52,0.00,,---,0.00,VWS V14.01,2013-10-09 21:07:00,
2013-10-09 14:12:00,55.9,38.5,29.63,SSW,205,10.0,22.0,52,0.00,,---,0.00,VWS V14.01,2013-10-09 21:12:00,
2013-10-09 14:17:00,55.3,39.4,29.62,SSW,195,14.0,23.0,55,0.00,,---,0.00,VWS V14.01,2013-10-09 21:17:00,
2013-10-09 14:22:00,55.0,39.2,29.63,SSW,203,8.0,24.0,55,0.00,,---,0.00,VWS V14.01,2013-10-09 21:22:00,
2013-10-09 14:27:00,54.5,39.6,29.63,SSW,194,12.0,24.0,57,0.00,,---,0.00,VWS V14.01,2013-10-09 21:27:00,
2013-10-09 14:30:00,54.4,39.5,29.63,SW,221,15.0,24.0,57,0.00,,---,0.00,VWS V14.01,2013-10-09 21:30:00,
2013-10-09 14:32:00,53.4,39.5,29.64,SW,221,13.0,24.0,59,0.00,,---,0.00,VWS V14.01,2013-10-09 21:32:00,
2013-10-09 14:37:00,52.8,40.6,29.64,SSW,207,16.0,24.0,63,0.00,,---,0.00,VWS V14.01,2013-10-09 21:37:00,
2013-10-09 14:42:00,51.6,41.0,29.64,SSW,207,17.0,24.0,67,0.00,,---,0.00,VWS V14.01,2013-10-09 21:42:00,
2013-10-09 14:47:00,50.6,41.9,29.63,South,181,8.0,24.0,72,0.00,,---,0.00,VWS V14.01,2013-10-09 21:47:00,
2013-10-09 14:52:00,49.8,41.9,29.64,WSW,238,15.0,24.0,74,0.00,,---,0.00,VWS V14.01,2013-10-09 21:52:00,
2013-10-09 14:57:00,48.8,42.6,29.63,SSE,168,13.0,24.0,79,0.00,,---,0.00,VWS V14.01,2013-10-09 21:57:00,
2013-10-09 15:00:00,48.8,42.6,29.63,SW,226,14.0,24.0,79,0.00,,---,0.00,VWS V14.01,2013-10-09 22:00:00,
2013-10-09 15:02:00,49.1,45.1,29.63,SW,219,10.0,18.0,86,0.01,,---,0.01,VWS V14.01,2013-10-09 22:02:00,
2013-10-09 15:07:00,49.3,45.9,29.63,SSW,195,11.0,18.0,88,0.01,,---,0.01,VWS V14.01,2013-10-09 22:07:00,
2013-10-09 15:12:00,48.9,45.2,29.63,SE,134,12.0,18.0,87,0.01,,---,0.01,VWS V14.01,2013-10-09 22:12:00,
2013-10-09 15:17:00,49.6,46.2,29.63,South,174,8.0,18.0,88,0.01,,---,0.01,VWS V14.01,2013-10-09 22:17:00,
2013-10-09 15:22:00,50.1,46.4,29.63,South,188,13.0,18.0,87,0.01,,---,0.01,VWS V14.01,2013-10-09 22:22:00,
2013-10-09 15:27:00,50.6,46.9,29.63,South,180,6.0,18.0,87,0.01,,---,0.01,VWS V14.01,2013-10-09 22:27:00,
2013-10-09 15:30:00,50.6,46.9,29.63,SE,142,8.0,18.0,87,0.01,,---,0.01,VWS V14.01,2013-10-09 22:30:00,
2013-10-09 15:32:00,51.0,47.0,29.63,South,191,8.0,18.0,86,0.01,,---,0.01,VWS V14.01,2013-10-09 22:32:00,
2013-10-09 15:37:00,51.8,46.2,29.62,SW,217,11.0,23.0,81,0.01,,---,0.01,VWS V14.01,2013-10-09 22:37:00,
2013-10-09 15:42:00,52.5,44.8,29.62,SSE,165,10.0,23.0,75,0.01,,---,0.01,VWS V14.01,2013-10-09 22:42:00,
2013-10-09 15:47:00,52.9,43.8,29.62,SW,222,14.0,23.0,71,0.01,,---,0.01,VWS V14.01,2013-10-09 22:47:00,
2013-10-09 15:52:00,53.3,42.6,29.62,SSE,159,7.0,23.0,67,0.01,,---,0.01,VWS V14.01,2013-10-09 22:52:00,
2013-10-09 15:57:00,54.5,43.8,29.63,South,186,8.0,23.0,67,0.01,,---,0.01,VWS V14.01,2013-10-09 22:57:00,
2013-10-09 16:00:00,54.5,43.8,29.63,South,191,6.0,23.0,67,0.01,,---,0.01,VWS V14.01,2013-10-09 23:00:00,
2013-10-09 16:02:00,55.2,42.4,29.63,SW,214,9.0,15.0,62,0.01,,---,0.01,VWS V14.01,2013-10-09 23:02:00,
2013-10-09 16:07:00,55.3,42.1,29.64,WSW,240,4.0,15.0,61,0.01,,---,0.01,VWS V14.01,2013-10-09 23:07:00,
2013-10-09 16:12:00,54.9,41.3,29.64,South,188,3.0,15.0,60,0.01,,---,0.01,VWS V14.01,2013-10-09 23:12:00,
2013-10-09 16:17:00,52.6,37.8,29.66,NNW,333,9.0,15.0,57,0.01,,---,0.01,VWS V14.01,2013-10-09 23:17:00,
2013-10-09 16:22:00,50.0,37.5,29.66,NW,312,11.0,19.0,62,0.01,,---,0.01,VWS V14.01,2013-10-09 23:22:00,
2013-10-09 16:27:00,48.5,38.4,29.66,NW,314,9.0,19.0,68,0.01,,---,0.01,VWS V14.01,2013-10-09 23:27:00,
2013-10-09 16:30:00,48.4,38.3,29.66,NW,316,8.0,19.0,68,0.01,,---,0.01,VWS V14.01,2013-10-09 23:30:00,
2013-10-09 16:32:00,47.9,39.0,29.67,NW,312,10.0,16.0,71,0.00,,---,0.01,VWS V14.01,2013-10-09 23:32:00,
2013-10-09 16:37:00,47.6,39.4,29.66,NW,306,9.0,16.0,73,0.00,,---,0.01,VWS V14.01,2013-10-09 23:37:00,
2013-10-09 16:42:00,47.3,39.5,29.66,NNW,330,9.0,16.0,74,0.00,,---,0.01,VWS V14.01,2013-10-09 23:42:00,
2013-10-09 16:47:00,47.1,39.6,29.66,NNW,329,4.0,16.0,75,0.00,,---,0.01,VWS V14.01,2013-10-09 23:47:00,
2013-10-09 16:52:00,47.0,39.5,29.66,WNW,300,4.0,16.0,75,0.00,,---,0.01,VWS V14.01,2013-10-09 23:52:00,
2013-10-09 16:57:00,47.1,38.9,29.67,NW,316,4.0,16.0,73,0.00,,---,0.01,VWS V14.01,2013-10-09 23:57:00,
2013-10-09 17:00:00,47.1,38.9,29.67,WNW,295,5.0,16.0,73,0.00,,---,0.01,VWS V14.01,2013-10-10 00:00:00,
2013-10-09 17:02:00,47.3,38.4,29.67,WNW,300,1.0,6.0,71,0.00,,---,0.01,VWS V14.01,2013-10-10 00:02:00,
2013-10-09 17:07:00,47.5,38.6,29.67,WSW,249,0.0,6.0,71,0.00,,---,0.01,VWS V14.01,2013-10-10 00:07:00,
2013-10-09 17:12:00,47.6,38.7,29.67,SW,232,2.0,6.0,71,0.00,,---,0.01,VWS V14.01,2013-10-10 00:12:00,
2013-10-09 17:17:00,47.5,38.9,29.67,SW,235,0.0,6.0,72,0.00,,---,0.01,VWS V14.01,2013-10-10 00:17:00,
2013-10-09 17:22:00,47.2,38.7,29.67,West,276,1.0,6.0,72,0.00,,---,0.01,VWS V14.01,2013-10-10 00:22:00,
2013-10-09 17:27:00,47.1,38.9,29.68,West,275,1.0,6.0,73,0.00,,---,0.01,VWS V14.01,2013-10-10 00:27:00,
2013-10-09 17:30:00,47.1,38.9,29.68,West,263,1.0,6.0,73,0.00,,---,0.01,VWS V14.01,2013-10-10 00:30:00,
2013-10-09 17:32:00,47.0,38.5,29.68,West,273,5.0,9.0,72,0.00,,---,0.01,VWS V14.01,2013-10-10 00:32:00,
2013-10-09 17:37:00,46.8,38.3,29.68,West,259,2.0,9.0,72,0.00,,---,0.01,VWS V14.01,2013-10-10 00:37:00,
2013-10-09 17:42:00,46.8,38.6,29.68,WNW,288,1.0,9.0,73,0.00,,---,0.01,VWS V14.01,2013-10-10 00:42:00,
2013-10-09 17:47:00,46.9,38.7,29.68,West,277,1.0,9.0,73,0.00,,---,0.01,VWS V14.01,2013-10-10 00:47:00,
2013-10-09 17:52:00,46.9,38.4,29.68,West,265,2.0,9.0,72,0.00,,---,0.01,VWS V14.01,2013-10-10 00:52:00,
2013-10-09 17:57:00,46.5,38.7,29.68,West,281,3.0,9.0,74,0.00,,---,0.01,VWS V14.01,2013-10-10 00:57:00,
2013-10-09 18:00:00,46.4,38.6,29.68,NW,312,4.0,9.0,74,0.00,,---,0.01,VWS V14.01,2013-10-10 01:00:00,
2013-10-09 18:02:00,46.0,38.5,29.68,NW,316,4.0,9.0,75,0.01,,---,0.02,VWS V14.01,2013-10-10 01:02:00,
2013-10-09 18:07:00,45.6,38.2,29.68,WNW,300,8.0,12.0,75,0.01,,---,0.02,VWS V14.01,2013-10-10 01:07:00,
2013-10-09 18:12:00,45.5,38.7,29.68,West,269,0.0,12.0,77,0.02,,---,0.03,VWS V14.01,2013-10-10 01:12:00,
2013-10-09 18:17:00,45.3,38.9,29.68,WNW,288,0.0,12.0,78,0.02,,---,0.03,VWS V14.01,2013-10-10 01:17:00,
2013-10-09 18:22:00,45.3,38.5,29.68,West,278,1.0,12.0,77,0.02,,---,0.03,VWS V14.01,2013-10-10 01:22:00,
2013-10-09 18:27:00,45.5,38.7,29.68,West,262,3.0,12.0,77,0.02,,---,0.03,VWS V14.01,2013-10-10 01:27:00,
2013-10-09 18:30:00,45.5,38.7,29.68,WSW,240,2.0,12.0,77,0.02,,---,0.03,VWS V14.01,2013-10-10 01:30:00,
2013-10-09 18:32:00,45.5,38.7,29.68,WSW,242,1.0,7.0,77,0.02,,---,0.03,VWS V14.01,2013-10-10 01:32:00,
2013-10-09 18:37:00,45.5,38.7,29.68,West,264,1.0,7.0,77,0.02,,---,0.03,VWS V14.01,2013-10-10 01:37:00,
2013-10-09 18:42:00,45.3,38.5,29.68,NNW,342,0.0,7.0,77,0.02,,---,0.03,VWS V14.01,2013-10-10 01:42:00,
2013-10-09 18:47:00,45.1,38.3,29.68,WSW,256,0.0,7.0,77,0.02,,---,0.03,VWS V14.01,2013-10-10 01:47:00,
2013-10-09 18:52:00,44.8,38.0,29.68,SW,234,3.0,7.0,77,0.02,,---,0.03,VWS V14.01,2013-10-10 01:52:00,
2013-10-09 18:57:00,44.5,37.8,29.68,ESE,105,0.0,7.0,77,0.02,,---,0.03,VWS V14.01,2013-10-10 01:57:00,
2013-10-09 19:00:00,44.5,37.8,29.68,ESE,105,0.0,7.0,77,0.02,,---,0.03,VWS V14.01,2013-10-10 02:00:00,
2013-10-09 19:02:00,44.3,37.9,29.68,West,270,1.0,2.0,78,0.02,,---,0.03,VWS V14.01,2013-10-10 02:02:00,
2013-10-09 19:07:00,44.1,37.7,29.68,WSW,242,0.0,2.0,78,0.02,,---,0.03,VWS V14.01,2013-10-10 02:07:00,
2013-10-09 19:12:00,43.8,37.4,29.68,WSW,238,0.0,2.0,78,0.02,,---,0.03,VWS V14.01,2013-10-10 02:12:00,
2013-10-09 19:17:00,43.5,37.1,29.68,SW,232,0.0,4.0,78,0.02,,---,0.03,VWS V14.01,2013-10-10 02:17:00,
2013-10-09 19:22:00,43.3,37.2,29.68,WSW,244,0.0,4.0,79,0.02,,---,0.03,VWS V14.01,2013-10-10 02:22:00,
2013-10-09 19:27:00,43.0,36.9,29.68,SSE,151,0.0,4.0,79,0.02,,---,0.03,VWS V14.01,2013-10-10 02:27:00,
2013-10-09 19:30:00,43.0,36.9,29.68,SSE,150,0.0,4.0,79,0.02,,---,0.03,VWS V14.01,2013-10-10 02:30:00,
2013-10-09 19:32:00,42.8,36.8,29.69,SSW,202,0.0,2.0,79,0.00,,---,0.03,VWS V14.01,2013-10-10 02:32:00,
2013-10-09 19:37:00,42.6,36.2,29.69,West,260,1.0,2.0,78,0.00,,---,0.03,VWS V14.01,2013-10-10 02:37:00,
2013-10-09 19:42:00,42.6,36.2,29.69,West,273,4.0,4.0,78,0.00,,---,0.03,VWS V14.01,2013-10-10 02:42:00,
2013-10-09 19:47:00,43.1,36.4,29.69,West,262,1.0,5.0,77,0.00,,---,0.03,VWS V14.01,2013-10-10 02:47:00,
2013-10-09 19:52:00,43.4,36.0,29.69,West,260,2.0,7.0,75,0.00,,---,0.03,VWS V14.01,2013-10-10 02:52:00,
2013-10-09 19:57:00,43.6,35.9,29.69,West,276,1.0,7.0,74,0.00,,---,0.03,VWS V14.01,2013-10-10 02:57:00,
2013-10-09 20:00:00,43.6,35.9,29.69,West,279,5.0,7.0,74,0.00,,---,0.03,VWS V14.01,2013-10-10 03:00:00,
2013-10-09 20:02:00,43.7,36.0,29.69,SW,229,3.0,7.0,74,0.00,,---,0.03,VWS V14.01,2013-10-10 03:02:00,
2013-10-09 20:07:00,43.7,36.3,29.69,SW,233,3.0,7.0,75,0.00,,---,0.03,VWS V14.01,2013-10-10 03:07:00,
2013-10-09 20:12:00,43.6,36.2,29.69,West,259,2.0,7.0,75,0.00,,---,0.03,VWS V14.01,2013-10-10 03:12:00,
2013-10-09 20:17:00,43.5,36.5,29.69,WNW,283,2.0,7.0,76,0.00,,---,0.03,VWS V14.01,2013-10-10 03:17:00,
2013-10-09 20:22:00,43.4,36.0,29.69,West,276,4.0,7.0,75,0.00,,---,0.03,VWS V14.01,2013-10-10 03:22:00,
2013-10-09 20:27:00,43.1,36.1,29.69,WSW,257,0.0,7.0,76,0.00,,---,0.03,VWS V14.01,2013-10-10 03:27:00,
2013-10-09 20:30:00,43.0,36.0,29.69,West,276,2.0,7.0,76,0.00,,---,0.03,VWS V14.01,2013-10-10 03:30:00,
2013-10-09 20:32:00,42.8,35.8,29.69,WNW,291,0.0,3.0,76,0.00,,---,0.03,VWS V14.01,2013-10-10 03:32:00,
2013-10-09 20:37:00,42.6,35.9,29.70,West,259,1.0,4.0,77,0.00,,---,0.03,VWS V14.01,2013-10-10 03:37:00,
2013-10-09 20:42:00,42.4,35.7,29.70,WSW,252,1.0,4.0,77,0.00,,---,0.03,VWS V14.01,2013-10-10 03:42:00,
2013-10-09 20:47:00,42.2,35.5,29.70,ENE,58,0.0,4.0,77,0.00,,---,0.03,VWS V14.01,2013-10-10 03:47:00,
2013-10-09 20:52:00,42.1,35.8,29.70,WSW,252,0.0,5.0,78,0.00,,---,0.03,VWS V14.01,2013-10-10 03:52:00,
2013-10-09 20:57:00,42.3,35.6,29.70,WSW,239,2.0,5.0,77,0.00,,---,0.03,VWS V14.01,2013-10-10 03:57:00,
2013-10-09 21:00:00,42.4,35.7,29.70,WSW,257,3.0,5.0,77,0.00,,---,0.03,VWS V14.01,2013-10-10 04:00:00,
2013-10-09 21:01:00,42.6,35.9,29.71,West,259,1.0,5.0,77,0.00,,---,0.03,VWS V14.01,2013-10-10 04:01:00,
2013-10-09 21:06:00,42.8,35.8,29.71,SW,231,1.0,5.0,76,0.00,,---,0.03,VWS V14.01,2013-10-10 04:06:00,
2013-10-09 21:11:00,42.9,35.5,29.71,West,266,4.0,6.0,75,0.00,,---,0.03,VWS V14.01,2013-10-10 04:11:00,
2013-10-09 21:16:00,42.8,35.1,29.71,SW,221,4.0,9.0,74,0.00,,---,0.03,VWS V14.01,2013-10-10 04:16:00,
2013-10-09 21:21:00,42.6,35.6,29.72,West,276,6.0,9.0,76,0.00,,---,0.03,VWS V14.01,2013-10-10 04:21:00,
2013-10-09 21:26:00,42.8,36.4,29.72,WNW,302,5.0,10.0,78,0.00,,---,0.03,VWS V14.01,2013-10-10 04:26:00,
2013-10-09 21:30:00,42.9,36.5,29.72,WNW,283,5.0,10.0,78,0.00,,---,0.03,VWS V14.01,2013-10-10 04:30:00,
2013-10-09 21:31:00,43.3,36.6,29.72,West,266,5.0,7.0,77,0.00,,---,0.03,VWS V14.01,2013-10-10 04:31:00,
2013-10-09 21:36:00,43.7,36.6,29.73,West,276,1.0,7.0,76,0.00,,---,0.03,VWS V14.01,2013-10-10 04:36:00,
2013-10-09 21:41:00,43.9,36.8,29.73,NW,309,7.0,7.0,76,0.00,,---,0.03,VWS V14.01,2013-10-10 04:41:00,
2013-10-09 21:46:00,44.0,36.9,29.73,West,281,5.0,8.0,76,0.00,,---,0.03,VWS V14.01,2013-10-10 04:46:00,
2013-10-09 21:51:00,44.2,37.1,29.73,WNW,288,2.0,9.0,76,0.00,,---,0.03,VWS V14.01,2013-10-10 04:51:00,
2013-10-09 21:56:00,44.4,37.3,29.73,West,260,7.0,11.0,76,0.00,,---,0.03,VWS V14.01,2013-10-10 04:56:00,
2013-10-09 22:00:00,44.6,37.5,29.73,West,280,6.0,11.0,76,0.00,,---,0.03,VWS V14.01,2013-10-10 05:00:00,
2013-10-09 22:01:00,44.7,37.3,29.73,NW,305,5.0,9.0,75,0.00,,---,0.03,VWS V14.01,2013-10-10 05:01:00,
2013-10-09 22:06:00,44.6,37.2,29.74,WSW,252,4.0,9.0,75,0.00,,---,0.03,VWS V14.01,2013-10-10 05:06:00,
2013-10-09 22:11:00,44.5,37.1,29.74,West,273,4.0,9.0,75,0.00,,---,0.03,VWS V14.01,2013-10-10 05:11:00,
2013-10-09 22:16:00,44.4,37.3,29.74,West,274,4.0,9.0,76,0.00,,---,0.03,VWS V14.01,2013-10-10 05:16:00,
2013-10-09 22:21:00,44.4,37.7,29.74,WSW,252,6.0,10.0,77,0.00,,---,0.03,VWS V14.01,2013-10-10 05:21:00,
2013-10-09 22:26:00,44.3,37.6,29.74,WNW,288,6.0,10.0,77,0.00,,---,0.03,VWS V14.01,2013-10-10 05:26:00,
2013-10-09 22:30:00,44.2,37.5,29.74,West,278,1.0,10.0,77,0.00,,---,0.03,VWS V14.01,2013-10-10 05:30:00,
2013-10-09 22:31:00,44.0,37.3,29.74,West,276,4.0,7.0,77,0.00,,---,0.03,VWS V14.01,2013-10-10 05:31:00,
2013-10-09 22:36:00,43.8,37.4,29.75,WSW,239,5.0,7.0,78,0.00,,---,0.03,VWS V14.01,2013-10-10 05:36:00,
2013-10-09 22:41:00,43.6,37.5,29.75,SSW,207,5.0,7.0,79,0.00,,---,0.03,VWS V14.01,2013-10-10 05:41:00,
2013-10-09 22:46:00,43.4,37.7,29.75,WNW,285,5.0,11.0,80,0.00,,---,0.03,VWS V14.01,2013-10-10 05:46:00,
2013-10-09 22:51:00,43.4,37.3,29.75,WSW,247,3.0,11.0,79,0.00,,---,0.03,VWS V14.01,2013-10-10 05:51:00,
2013-10-09 22:56:00,43.1,37.0,29.75,SW,230,3.0,11.0,79,0.00,,---,0.03,VWS V14.01,2013-10-10 05:56:00,
2013-10-09 23:00:00,43.1,37.0,29.75,West,276,2.0,11.0,79,0.00,,---,0.03,VWS V14.01,2013-10-10 06:00:00,
2013-10-09 23:01:00,42.9,36.8,29.75,WSW,246,5.0,6.0,79,0.00,,---,0.03,VWS V14.01,2013-10-10 06:01:00,
2013-10-09 23:06:00,42.8,36.8,29.75,West,278,3.0,8.0,79,0.00,,---,0.03,VWS V14.01,2013-10-10 06:06:00,
2013-10-09 23:11:00,42.8,37.1,29.76,West,265,4.0,9.0,80,0.00,,---,0.03,VWS V14.01,2013-10-10 06:11:00,
2013-10-09 23:16:00,42.6,36.9,29.76,West,277,2.0,9.0,80,0.00,,---,0.03,VWS V14.01,2013-10-10 06:16:00,
2013-10-09 23:21:00,42.5,36.8,29.76,WNW,295,3.0,9.0,80,0.00,,---,0.03,VWS V14.01,2013-10-10 06:21:00,
2013-10-09 23:26:00,42.5,36.8,29.76,WSW,238,4.0,9.0,80,0.00,,---,0.03,VWS V14.01,2013-10-10 06:26:00,
2013-10-09 23:30:00,42.6,37.2,29.76,West,264,4.0,9.0,81,0.00,,---,0.03,VWS V14.01,2013-10-10 06:30:00,
2013-10-09 23:31:00,42.8,37.1,29.77,West,277,3.0,11.0,80,0.00,,---,0.03,VWS V14.01,2013-10-10 06:31:00,
2013-10-09 23:36:00,42.9,37.2,29.77,WSW,257,3.0,11.0,80,0.00,,---,0.03,VWS V14.01,2013-10-10 06:36:00,
2013-10-09 23:41:00,42.9,37.2,29.77,WSW,245,7.0,11.0,80,0.00,,---,0.03,VWS V14.01,2013-10-10 06:41:00,
2013-10-09 23:46:00,42.9,36.8,29.77,West,269,4.0,11.0,79,0.00,,---,0.03,VWS V14.01,2013-10-10 06:46:00,
2013-10-09 23:51:00,42.9,37.2,29.77,WSW,249,3.0,11.0,80,0.00,,---,0.03,VWS V14.01,2013-10-10 06:51:00,
2013-10-09 23:56:00,43.0,37.3,29.77,WSW,239,6.0,11.0,80,0.00,,---,0.03,VWS V14.01,2013-10-10 06:56:00,